Alderney, United Kingdom

4:19 AM GMT on February 23, 2017 (GMT +0000)
Alderney

Weather History for EGJA - October, 2012

Change the Weather History Date:

Thursday, October 4, 2012

  Actual Average Record
Temperature  
Mean Temperature 56 °F -  
Max Temperature 60 °F 57 °F 64 °F (2007)
Min Temperature 51 °F 52 °F 51 °F (2003)
Degree Days  
Heating Degree Days 10    
Growing Degree Days 6 (Base 50)    
Moisture  
Dew Point 47 °F    
Average Humidity 70    
Maximum Humidity 88    
Minimum Humidity 55    
Precipitation  
Precipitation 0.00 in - - ()
Sea Level Pressure  
Sea Level Pressure 29.87 in    
Wind  
Wind Speed 12 mph ()    
Max Wind Speed 16 mph    
Max Gust Speed -    
Visibility 6.2 miles    
Events      
Averages and records for this station are not official NWS values.
T = Trace of Precipitation, MM = Missing Value Source: Averaged Metar Reports

Daily Weather History Graph

Daily Weather History Graph

Search for Another Location

Airport or City:

Trip Planner

Search our weather history database for the weather conditions in past years. The results will help you decide how hot, cold, wet, or windy it might be!

Date:

Astronomy

Oct. 04, 2012 Rise Set
Actual Time 7:13 AM BST 6:40 PM BST
Civil Twilight 6:41 AM BST 7:12 PM BST
Nautical Twilight 6:04 AM BST 7:49 PM BST
Astronomical Twilight 5:26 AM BST 8:27 PM BST
Moon 8:39 PM BST (10/4) 11:43 AM BST (10/4)
Length of Visible Light 12h 30m
Length of Day
11h 26m
Waning Gibbous, 83% of the Moon is Illuminated
Oct 4
Waning Gibbous
Oct 8
Last Quarter
Oct 15
New
Oct 22
First Quarter
Oct 29
Full

Hourly Weather History & Observations

Time (BST) Temp. Dew Point Humidity Pressure Visibility Wind Dir Wind Speed Gust Speed Precip Events Conditions
6:50 AM 51.8 °F 44.6 °F 76% 29.77 in 6.2 mi West 11.5 mph - N/A   Scattered Clouds
7:20 AM 53.6 °F 48.2 °F 82% 29.77 in 6.2 mi WNW 16.1 mph - N/A   Scattered Clouds
7:50 AM 51.8 °F 44.6 °F 76% 29.80 in 6.2 mi West 13.8 mph - N/A   Scattered Clouds
8:20 AM 53.6 °F 50.0 °F 88% 29.83 in 6.2 mi West 12.7 mph - N/A   Partly Cloudy
8:50 AM 53.6 °F 48.2 °F 82% 29.83 in 6.2 mi West 12.7 mph - N/A   Partly Cloudy
9:20 AM 55.4 °F 46.4 °F 72% 29.83 in 6.2 mi West 11.5 mph - N/A   Partly Cloudy
9:50 AM 55.4 °F 50.0 °F 82% 29.86 in 6.2 mi West 13.8 mph - N/A   Partly Cloudy
10:20 AM 55.4 °F 50.0 °F 82% 29.86 in 6.2 mi WSW 13.8 mph - N/A   Partly Cloudy
10:50 AM 55.4 °F 46.4 °F 72% 29.89 in 6.2 mi West 15.0 mph - N/A   Partly Cloudy
11:20 AM 57.2 °F 50.0 °F 77% 29.89 in 6.2 mi WSW 12.7 mph - N/A   Partly Cloudy
11:50 AM 57.2 °F 46.4 °F 67% 29.89 in 6.2 mi WSW 12.7 mph - N/A   Partly Cloudy
12:20 PM 57.2 °F 44.6 °F 63% 29.89 in 6.2 mi West 15.0 mph - N/A   Partly Cloudy
12:50 PM 57.2 °F 46.4 °F 67% 29.92 in 6.2 mi WSW 15.0 mph - N/A   Partly Cloudy
1:20 PM 59.0 °F 46.4 °F 63% 29.92 in 6.2 mi WSW 15.0 mph - N/A   Partly Cloudy
1:50 PM 59.0 °F 44.6 °F 59% 29.92 in 6.2 mi SW 13.8 mph - N/A   Partly Cloudy
2:20 PM 59.0 °F 44.6 °F 59% 29.92 in 6.2 mi SW 13.8 mph - N/A   Partly Cloudy
2:50 PM 59.0 °F 44.6 °F 59% 29.92 in 6.2 mi SW 13.8 mph - N/A   Partly Cloudy
3:20 PM 60.8 °F 44.6 °F 55% 29.89 in 6.2 mi SW 12.7 mph - N/A   Partly Cloudy
3:50 PM 57.2 °F 44.6 °F 63% 29.92 in 6.2 mi SW 12.7 mph - N/A   Partly Cloudy
4:20 PM 57.2 °F 46.4 °F 67% 29.92 in 6.2 mi SW 11.5 mph - N/A   Partly Cloudy
4:50 PM 57.2 °F 46.4 °F 67% 29.89 in 6.2 mi SW 12.7 mph - N/A   Partly Cloudy
5:20 PM 57.2 °F 46.4 °F 67% 29.89 in 6.2 mi SW 11.5 mph - N/A   Partly Cloudy
5:50 PM 57.2 °F 46.4 °F 67% 29.89 in 6.2 mi SW 10.4 mph - N/A   Partly Cloudy
6:20 PM 55.4 °F 46.4 °F 72% 29.89 in 6.2 mi SSW 6.9 mph - N/A   Partly Cloudy